Wetbulb
77.52 78.45 78.64 77.82 77.72 78.28 77.56 77.75 77.85 78.04 79.00 77.59 75.40 78.68 77.77 77.65 78.42 78.69 78.94 78.20 77.27 78.23 77.96 77.56 77.82 79.88 76.07 74.95 74.59 74.03 73.47 73.36 70.96 72.31 74.48 77.52 79.39 80.31 80.11 80.77 79.03 79.81 77.05
77.30 77.97 77.63 77.78 78.13 77.41 77.49 77.65 78.17 78.33 79.10 78.39 78.45 78.33 78.26 78.15 79.61 77.76 76.84 76.12 76.89 76.25 76.50 77.66 76.85 75.68 79.68 79.64 75.71 78.95 76.36 77.56 74.00 75.55 75.56 74.46 78.26 81.26 81.50 81.64 78.50 77.19 78.00
76.58 76.81 77.07 77.34 77.34 77.56 78.10 78.57 78.55 79.20 78.84 77.43 78.99 78.99 78.60 77.94 77.88 78.86 78.45 77.24 76.43 76.28 76.86 76.96 76.26 77.20 78.41 76.79 78.47 75.92 75.04 75.84 75.99 73.68 73.71 74.94 75.60 76.38 77.47 80.29 80.88 79.47 77.93
75.38 76.14 77.38 77.27 77.88 77.51 78.61 79.43 78.79 79.54 79.15 78.82 79.22 79.37 78.94 78.64 78.58 77.64 78.41 78.80 78.39 77.15 77.40 77.65 77.08 77.10 78.16 79.04 77.73 78.92 77.95 76.56 76.01 73.94 73.29 73.50 74.53 78.46 76.64 75.12 74.60 75.05 75.01
72.81 74.74 76.37 78.26 78.48 78.58 79.17 79.29 78.55 79.12 78.86 79.46 79.10 78.64 78.51 77.96 76.96 78.84 78.32 78.58 79.30 78.63 78.66 78.43 78.08 76.86 73.13 74.77 75.35 78.38 79.42 76.40 74.09 73.35 72.74 73.00 73.23 74.23 75.31 74.33 73.68 74.27 77.03
71.41 71.86 75.13 75.32 78.14 78.03 78.20 78.26 79.15 78.86 79.41 79.38 78.99 78.21 77.68 75.07 69.42 68.09 75.28 77.95 78.93 79.38 78.87 79.53 80.02 75.68 73.87 69.76 68.98 69.19 72.73 76.64 78.27 73.21 71.32 71.23 76.82 74.73 73.45 72.62 73.05 71.85 70.46
68.66 67.44 68.46 75.10 74.79 75.89 77.24 77.32 78.24 78.59 78.45 79.05 78.70 78.56 78.26 78.12 66.06 65.31 68.54 77.17 78.28 79.09 79.76 79.81 78.36 76.58 75.52 78.84 70.75 68.42 68.95 67.31 68.18 76.17 76.42 76.20 76.27 77.86 78.36 78.13 76.21 75.82 73.54
64.61 65.24 66.44 67.88 70.82 73.84 75.28 75.65 76.50 76.86 77.67 78.39 78.16 78.60 78.73 78.11 65.98 63.17 66.24 77.49 77.70 78.56 79.24 79.47 79.61 79.39 79.71 78.64 78.94 78.16 77.57 77.43 77.07 74.87 75.75 76.65 78.00 78.95 79.17 78.26 78.35 78.87 77.82
63.53 63.51 64.36 67.04 68.17 68.95 72.00 73.86 74.39 75.46 76.11 76.28 77.00 77.42 78.53 78.61 64.18 62.67 65.64 74.03 74.87 77.31 78.73 79.49 79.70 80.22 73.51 67.61 77.85 78.81 78.84 78.85 72.14 68.65 69.99 69.74 69.51 67.72 70.38 75.53 73.33 71.72 70.49
63.69 64.15 64.12 64.48 66.13 68.65 69.74 70.38 73.90 76.59 75.89 75.24 75.13 76.66 72.93 77.89 67.44 60.99 64.26 74.30 74.11 73.85 75.59 77.52 69.24 74.62 67.78 64.10 77.66 78.15 77.44 77.81 78.26 77.07 77.20 72.70 69.51 73.46 66.22 74.05 74.80 72.58 71.81
63.50 63.73 65.13 65.69 65.11 65.44 68.82 71.50 72.67 73.97 75.58 75.69 75.95 77.20 77.36 76.18 77.16 60.63 59.09 75.20 74.71 74.49 74.31 74.44 75.11 64.69 62.65 61.29 61.94 78.55 76.96 77.87 76.27 77.29 76.79 76.14 75.71 76.69 78.00 78.16 78.27 75.72 73.48
63.75 63.37 63.61 64.83 64.73 64.53 67.17 69.31 71.05 72.39 72.70 73.52 75.38 74.45 76.07 77.48 67.40 64.88 58.31 60.01 70.38 74.98 75.18 75.27 75.37 59.73 58.99 59.81 62.43 66.14 64.32 66.49 76.74 75.39 74.37 73.52 73.04 73.37 74.77 76.97 80.06 79.88 78.83
61.71 63.33 63.17 63.70 63.85 64.33 64.11 65.28 66.57 70.78 70.22 70.87 72.46 73.70 73.95 74.69 74.27 63.17 59.66 57.53 59.29 70.28 75.66 72.40 59.76 56.75 53.31 57.73 58.14 61.03 61.10 72.98 74.64 74.02 73.67 73.84 74.49 74.31 76.20 77.83 80.34 82.68 81.77
60.14 61.86 63.30 62.18 62.04 62.51 62.82 63.17 63.34 65.21 67.24 67.97 68.37 69.38 73.12 73.98 74.56 74.41 76.45 70.87 61.08 66.05 67.74 72.09 69.99 65.50 59.92 65.54 69.76 64.98 70.28 74.26 74.07 74.20 74.27 75.30 75.72 74.64 74.36 75.35 74.70 74.65 74.97
59.87 60.11 61.78 61.94 61.08 61.39 62.10 61.68 61.97 64.18 61.73 63.10 64.85 65.31 65.73 68.07 70.72 58.97 58.79 65.57 67.68 68.42 66.34 73.79 74.08 73.58 73.39 74.58 75.66 76.18 76.48 75.37 74.01 74.49 75.05 75.17 75.00 74.56 74.19 75.33 75.08 74.52 73.54
58.36 59.25 59.95 60.61 60.53 59.94 59.49 59.84 54.19 51.82 49.62 48.24 48.05 55.24 64.54 57.42 52.92 49.93 48.12 49.39 49.75 49.75 67.23 71.08 72.48 74.13 74.55 74.90 75.25 75.65 77.03 74.36 76.56 76.20 75.46 75.25 74.95 74.81 74.86 75.35 75.57 74.76 73.63
56.66 57.02 58.81 57.72 59.53 59.42 58.61 57.77 57.52 58.34 50.28 48.73 46.93 47.21 46.67 50.21 47.03 45.58 45.94 45.94 46.12 49.39 66.98 72.62 73.25 72.77 74.57 75.43 76.12 76.38 76.29 76.81 77.30 76.24 76.52 76.62 76.23 75.99 74.34 74.88 75.05 75.07 74.07
53.80 51.44 54.85 56.75 57.72 58.38 58.60 58.94 58.97 58.22 58.54 60.34 53.03 52.22 47.57 46.12 44.86 45.40 45.58 45.66 62.25 58.17 67.25 72.23 74.47 73.53 73.98 75.22 75.48 75.91 77.29 76.74 76.64 76.11 75.40 76.11 76.21 75.02 74.31 74.22 74.40 73.96 73.67
51.07 51.15 53.80 55.68 57.46 57.41 58.51 58.69 58.78 58.86 58.42 59.10 61.08 56.68 56.01 46.49 47.56 46.67 45.74 62.36 66.89 68.59 68.27 69.39 72.43 73.26 73.34 75.00 75.77 76.94 77.19 77.31 75.98 74.61 74.63 75.05 75.55 75.86 75.02 74.42 73.98 64.39 67.94
49.09 51.08 52.34 53.27 54.96 55.87 56.68 56.90 57.52 58.72 59.63 59.31 59.87 60.35 62.24 61.68 62.06 62.19 63.90 66.14 65.26 66.08 68.27 70.79 69.94 71.74 72.85 74.46 75.44 76.45 76.38 76.32 75.74 75.06 74.00 75.11 75.19 75.62 74.85 74.62 75.40 74.64 75.77
47.30 48.21 50.04 51.27 52.66 54.91 55.92 55.92 56.69 57.38 57.89 59.15 59.52 58.92 44.77 61.01 60.24 59.93 60.84 61.67 61.00 60.72 63.13 66.08 66.66 65.37 70.82 73.33 73.36 73.80 74.75 74.05 72.92 73.23 74.36 74.95 75.09 73.04 74.06 74.35 74.20 73.85 74.14
46.02 46.19 46.85 47.06 48.55 49.62 52.05 54.71 55.89 56.74 56.98 57.84 59.19 58.81 47.86 58.54 58.03 57.91 57.02 56.74 55.54 55.02 53.61 55.56 59.67 58.53 57.22 58.97 61.81 63.80 65.17 67.09 65.69 65.56 65.51 66.43 67.29 67.61 68.45 68.40 68.24 68.58 69.28
44.57 44.26 45.17 45.62 46.23 47.29 48.84 50.05 51.19 53.08 54.60 56.67 55.92 55.39 55.90 55.74 54.62 53.44 52.69 51.11 49.98 48.73 50.67 52.05 53.05 53.54 53.69 54.31 55.44 55.29 59.27 62.68 62.37 62.42 62.55 64.13 64.85 66.19 66.53 66.61 66.81 66.56 66.49
42.77 42.22 42.38 43.11 44.16 44.21 44.84 45.73 47.59 47.00 49.68 51.47 51.12 51.71 52.37 52.59 51.02 49.08 47.36 46.80 46.10 46.01 46.55 46.89 47.95 48.85 50.29 51.26 51.18 50.53 50.54 52.75 57.02 60.48 61.91 62.92 63.61 60.56 64.59 63.24 61.63 61.10 61.24
40.28 39.98 40.37 41.09 41.37 41.55 42.25 43.44 45.25 46.87 47.68 48.94 49.02 48.67 47.93 47.44 45.77 44.82 44.37 43.64 42.93 42.28 41.51 43.35 43.83 42.69 42.84 42.69 43.97 45.25 40.67 38.08 51.92 49.39 60.17 60.57 60.38 59.90 58.28 58.37 57.54 57.47 58.21
39.43 38.46 38.63 39.29 39.57 40.22 40.75 41.30 42.24 43.99 44.44 44.71 44.58 44.22 43.86 43.22 42.35 41.49 40.76 40.19 39.37 38.69 38.95 39.84 39.78 39.88 40.34 39.39 38.63 37.64 35.84 38.17 46.64 42.68 54.81 55.31 55.76 55.36 56.02 56.25 56.65 55.89 55.94
MSLP
1013.88 1014.35 1014.93 1015.46 1015.95 1016.59 1016.76 1017.06 1017.43 1017.59 1017.64 1017.79 1018.63 1018.10 1018.49 1018.79 1019.09 1019.65 1019.66 1019.19 1019.86 1020.08 1020.05 1019.84 1020.00 1020.14 1019.66 1019.03 1018.87 1018.93 1018.90 1018.79 1018.54 1018.26 1018.00 1017.93 1018.31 1018.27 1018.06 1018.02 1017.63 1017.03 1015.95
1012.98 1013.78 1014.23 1014.89 1015.23 1015.63 1016.19 1016.40 1016.81 1017.19 1017.33 1017.60 1017.92 1018.13 1018.41 1018.44 1018.70 1019.33 1019.45 1019.11 1019.37 1019.77 1019.82 1019.92 1019.87 1019.77 1020.12 1020.01 1019.61 1019.25 1019.09 1019.07 1019.09 1018.82 1018.78 1018.45 1018.00 1017.57 1017.49 1017.61 1017.17 1016.58 1016.01
1012.02 1012.77 1013.53 1014.12 1014.72 1015.01 1015.39 1015.93 1016.22 1016.61 1016.85 1017.15 1017.59 1017.81 1018.19 1018.39 1018.45 1018.58 1018.87 1019.04 1018.93 1019.20 1019.34 1019.45 1019.57 1019.63 1019.78 1019.60 1019.51 1019.16 1018.81 1018.97 1018.84 1018.67 1018.25 1017.89 1017.52 1017.21 1017.05 1016.92 1016.69 1016.10 1015.64
1011.27 1011.88 1012.69 1013.51 1014.02 1014.53 1014.99 1015.39 1015.79 1016.13 1016.51 1016.65 1016.93 1017.29 1017.59 1017.85 1017.99 1018.07 1018.21 1018.52 1018.66 1018.52 1018.64 1018.80 1018.91 1019.07 1019.33 1019.50 1019.67 1019.59 1019.37 1019.22 1018.82 1018.50 1018.09 1017.65 1017.11 1016.65 1016.51 1016.44 1016.07 1015.76 1015.35
1012.94 1012.27 1012.18 1012.82 1013.58 1014.10 1014.48 1014.86 1015.30 1015.66 1015.94 1016.32 1016.55 1016.78 1017.07 1017.29 1017.28 1017.53 1017.73 1017.82 1018.07 1018.23 1018.17 1018.18 1018.31 1018.51 1018.75 1019.17 1019.13 1018.95 1018.95 1018.98 1018.51 1017.87 1017.27 1016.86 1016.58 1016.44 1016.49 1016.53 1016.35 1015.67 1015.29
1014.36 1013.91 1013.15 1013.41 1013.33 1013.77 1014.20 1014.52 1014.82 1015.13 1015.48 1015.79 1016.04 1016.16 1016.37 1016.50 1016.44 1016.81 1017.15 1017.23 1017.30 1017.48 1017.63 1017.79 1017.96 1018.16 1018.41 1018.74 1018.98 1018.96 1019.12 1019.04 1018.72 1018.53 1017.85 1017.30 1017.11 1017.01 1016.63 1016.65 1016.41 1016.11 1015.61
1015.68 1015.59 1015.15 1014.21 1014.33 1014.27 1014.17 1014.27 1014.48 1014.73 1014.92 1015.13 1015.42 1015.70 1015.73 1015.94 1016.04 1016.32 1016.66 1016.81 1016.61 1016.68 1016.86 1017.07 1017.16 1016.87 1017.31 1017.76 1018.18 1018.47 1018.63 1018.59 1018.58 1018.55 1018.18 1017.71 1017.34 1017.26 1017.28 1016.98 1016.76 1016.41 1016.02
1016.93 1016.89 1016.71 1016.22 1015.67 1014.89 1014.50 1014.44 1014.50 1014.57 1014.59 1014.67 1014.75 1015.00 1015.19 1015.28 1015.55 1015.87 1016.15 1016.41 1016.31 1016.29 1016.26 1016.39 1016.61 1016.66 1016.70 1016.96 1017.28 1017.36 1017.62 1017.58 1017.55 1017.75 1017.64 1017.32 1017.17 1017.00 1017.05 1016.85 1016.56 1016.28 1015.68
1017.39 1017.37 1017.15 1016.68 1016.23 1016.05 1015.49 1014.83 1014.59 1014.61 1014.45 1014.37 1014.37 1014.44 1014.51 1014.72 1014.98 1015.35 1015.75 1015.84 1015.68 1015.61 1015.70 1015.83 1015.84 1015.89 1016.14 1016.55 1016.81 1016.51 1016.43 1016.14 1015.77 1016.21 1016.28 1016.13 1016.17 1016.48 1016.69 1016.65 1016.08 1015.68 1014.67
1017.24 1017.36 1017.46 1017.27 1016.99 1016.35 1016.09 1015.39 1014.84 1014.46 1013.82 1013.81 1013.86 1013.95 1014.01 1014.11 1014.40 1014.78 1015.23 1015.21 1014.73 1014.57 1014.72 1014.93 1015.24 1015.37 1015.56 1015.81 1016.13 1016.13 1015.81 1015.52 1015.51 1015.24 1015.75 1015.85 1015.87 1015.63 1016.09 1016.31 1015.99 1015.45 1014.55
1017.44 1017.21 1017.07 1017.07 1017.00 1016.71 1016.08 1015.35 1014.69 1014.28 1014.10 1013.87 1013.46 1013.18 1013.18 1013.42 1013.59 1013.99 1014.42 1014.67 1014.17 1013.66 1013.42 1013.27 1013.55 1014.06 1014.56 1015.00 1015.25 1015.26 1014.95 1015.14 1014.99 1015.00 1014.85 1014.61 1014.38 1014.13 1014.04 1014.12 1014.37 1014.56 1014.03
1017.60 1017.36 1017.11 1016.83 1016.60 1016.04 1015.75 1015.12 1014.75 1013.98 1013.67 1013.40 1013.36 1013.27 1012.87 1012.69 1012.93 1013.34 1013.68 1013.77 1013.83 1013.72 1012.89 1012.21 1012.27 1012.60 1012.91 1013.42 1013.91 1014.05 1014.19 1014.52 1014.51 1014.15 1013.67 1013.10 1012.83 1012.60 1012.38 1012.21 1012.28 1012.83 1012.71
1017.85 1017.33 1017.09 1016.86 1016.52 1016.14 1015.81 1015.19 1014.44 1013.81 1013.21 1012.70 1012.22 1012.22 1012.43 1012.27 1012.82 1012.85 1013.05 1013.39 1013.28 1013.53 1012.91 1012.44 1012.24 1012.52 1012.51 1012.74 1012.75 1012.77 1013.12 1013.77 1013.52 1013.08 1012.66 1012.33 1012.09 1011.83 1011.74 1011.50 1011.37 1011.59 1012.11
1017.83 1017.17 1016.75 1016.53 1016.03 1015.94 1015.25 1014.69 1014.20 1013.54 1012.67 1012.61 1012.11 1011.89 1012.21 1012.39 1012.16 1012.55 1012.55 1013.13 1013.14 1013.21 1012.92 1012.51 1012.30 1012.21 1011.98 1011.89 1011.82 1012.20 1012.67 1012.43 1012.15 1011.88 1011.69 1011.55 1011.35 1010.94 1010.55 1010.55 1010.55 1010.69 1010.67
1017.40 1017.01 1016.33 1016.12 1015.88 1015.15 1015.02 1014.51 1014.31 1014.19 1014.01 1013.98 1013.63 1013.35 1013.03 1012.25 1012.56 1013.15 1013.34 1013.32 1013.46 1013.13 1012.86 1011.97 1011.24 1010.98 1010.84 1010.65 1010.45 1010.39 1010.49 1010.91 1011.11 1011.06 1010.80 1010.51 1010.13 1009.82 1009.53 1009.58 1009.58 1009.62 1009.56
1017.34 1016.63 1015.97 1015.37 1015.10 1015.15 1014.56 1013.98 1013.70 1013.61 1013.77 1013.85 1013.79 1013.86 1013.45 1013.39 1013.39 1013.26 1013.08 1012.79 1012.43 1012.90 1012.27 1011.37 1010.36 1009.64 1009.13 1008.96 1008.93 1008.91 1008.98 1009.03 1009.05 1009.35 1009.55 1009.71 1009.45 1009.02 1008.73 1008.65 1008.67 1008.77 1008.71
1018.42 1017.79 1016.53 1015.68 1014.87 1014.21 1014.30 1014.24 1013.22 1012.55 1012.38 1012.51 1012.56 1012.67 1012.90 1012.93 1012.95 1013.05 1013.10 1012.48 1011.95 1012.27 1011.45 1010.57 1009.62 1009.13 1008.57 1008.24 1007.67 1007.35 1007.05 1007.00 1007.30 1007.82 1008.12 1008.07 1008.21 1008.22 1008.18 1008.08 1007.99 1007.89 1007.81
1018.79 1018.30 1017.51 1016.25 1015.15 1014.46 1013.78 1013.06 1012.90 1012.54 1011.87 1011.43 1011.35 1011.70 1011.94 1012.08 1012.57 1012.85 1012.63 1012.43 1011.89 1011.31 1010.55 1008.90 1008.50 1008.48 1008.18 1007.82 1007.49 1007.20 1007.04 1006.59 1006.96 1007.40 1007.79 1008.01 1007.92 1007.75 1007.59 1007.28 1007.13 1007.06 1007.08
1018.89 1018.25 1017.28 1016.02 1014.72 1013.82 1013.27 1012.81 1012.27 1011.77 1011.56 1011.05 1010.49 1010.43 1010.65 1011.59 1011.77 1011.77 1012.22 1011.94 1010.84 1010.12 1009.61 1008.78 1007.88 1007.58 1007.37 1007.03 1006.95 1006.77 1006.57 1006.82 1007.14 1007.07 1007.17 1007.34 1007.39 1007.37 1007.05 1006.63 1006.47 1006.42 1006.56
1018.95 1018.17 1017.39 1016.37 1015.29 1014.24 1013.38 1012.73 1012.00 1011.23 1010.56 1010.02 1009.97 1010.02 1009.70 1010.07 1010.99 1011.01 1010.87 1010.56 1010.34 1010.02 1008.93 1008.02 1006.64 1007.25 1006.85 1006.32 1006.35 1006.16 1006.43 1006.57 1006.55 1006.38 1006.33 1006.51 1006.63 1006.81 1006.77 1006.76 1006.71 1006.67 1006.76
1018.51 1017.98 1017.24 1016.37 1015.24 1014.19 1013.07 1012.33 1011.72 1011.00 1010.17 1009.39 1009.39 1009.79 1010.93 1010.78 1010.86 1010.83 1010.94 1010.50 1010.18 1009.97 1009.35 1008.38 1007.68 1007.53 1005.44 1004.79 1006.85 1006.62 1006.21 1006.35 1006.09 1006.47 1005.94 1005.24 1005.89 1006.63 1006.76 1006.69 1006.77 1007.02 1007.41
1018.50 1017.82 1017.21 1016.49 1015.67 1014.70 1013.73 1012.41 1011.46 1010.67 1010.23 1009.61 1008.93 1009.80 1010.62 1010.62 1010.87 1010.81 1010.97 1010.70 1010.39 1010.32 1010.20 1009.51 1008.50 1007.74 1007.54 1008.24 1008.17 1007.21 1006.64 1006.31 1005.50 1005.83 1005.23 1005.21 1004.88 1006.09 1007.00 1007.48 1006.88 1007.11 1007.26
1018.29 1017.79 1017.14 1016.45 1015.85 1015.27 1014.46 1013.54 1012.69 1011.88 1011.26 1010.47 1010.25 1010.53 1010.74 1010.96 1011.15 1011.09 1011.13 1011.14 1010.88 1010.45 1010.24 1009.89 1009.15 1008.47 1008.36 1008.17 1008.84 1007.85 1007.65 1006.29 1007.14 1006.93 1007.07 1006.46 1006.37 1007.65 1007.25 1007.41 1006.72 1007.20 1007.59
1018.23 1017.75 1017.15 1016.55 1015.95 1015.49 1014.88 1014.19 1013.60 1012.96 1012.65 1011.87 1011.63 1011.23 1011.19 1011.41 1011.56 1011.51 1011.49 1011.31 1010.98 1010.40 1010.75 1010.43 1010.36 1008.81 1009.28 1009.19 1008.14 1007.11 1007.41 1007.51 1008.22 1008.03 1007.44 1006.41 1006.72 1006.91 1007.17 1007.39 1007.50 1007.86 1007.97
1018.81 1018.07 1017.45 1016.71 1016.07 1015.57 1014.89 1014.23 1013.51 1012.96 1012.66 1012.04 1011.80 1011.54 1011.61 1011.95 1012.15 1012.00 1011.73 1011.28 1010.95 1010.88 1011.16 1010.87 1010.58 1009.35 1009.48 1008.81 1008.26 1008.81 1009.31 1009.08 1008.49 1007.89 1006.87 1006.89 1007.32 1007.68 1007.90 1007.92 1008.27 1008.54 1008.58
1018.64 1018.05 1017.47 1016.72 1016.01 1015.25 1014.52 1013.85 1013.30 1012.92 1012.41 1012.19 1012.06 1011.95 1011.97 1012.39 1012.49 1012.34 1011.95 1011.47 1011.28 1011.53 1011.37 1011.53 1011.63 1009.73 1009.88 1009.77 1010.12 1010.31 1010.14 1009.62 1008.66 1008.14 1008.07 1008.12 1008.25 1008.55 1008.66 1008.63 1008.60 1008.70 1008.98
Wind_Speed
14 13 13 13 14 13 12 11 10 8 8 7 14 7 10 9 10 8 9 5 9 8 8 6 7 7 8 7 5 6 6 6 7 7 9 6 2 6 7 8 10 11 7
14 13 14 13 13 14 13 14 13 11 10 9 9 8 10 9 9 10 10 9 9 9 10 8 9 8 8 8 8 7 7 7 7 8 8 9 9 6 6 6 8 10 8
14 15 14 14 14 14 14 13 13 12 12 12 11 10 11 11 10 11 10 10 10 10 9 9 9 8 7 8 7 8 7 7 8 9 8 8 8 7 8 7 7 8 10
6 15 13 13 13 14 12 12 13 12 12 12 12 12 11 12 12 12 12 11 11 11 10 10 9 9 9 8 8 8 8 7 8 9 9 9 8 7 6 7 7 7 8
15 6 7 12 12 12 11 12 12 12 12 12 12 13 13 13 12 12 11 11 12 12 11 10 11 11 8 8 9 9 8 9 9 9 9 8 8 6 7 7 8 8 7
15 16 5 7 5 10 11 12 11 12 12 12 13 13 14 13 14 12 13 12 12 11 11 11 11 8 11 10 10 12 8 7 7 9 10 9 7 8 7 8 9 9 10
13 14 17 9 5 5 6 7 9 11 13 13 13 14 14 14 12 12 14 13 12 12 12 11 11 12 14 13 15 14 13 11 12 9 11 11 11 8 8 9 8 8 10
13 13 13 11 14 10 6 5 5 8 10 11 12 14 14 13 13 13 13 14 13 14 13 13 13 13 11 10 12 12 14 14 13 12 14 14 13 11 10 10 10 10 11
8 12 11 12 11 11 13 8 5 6 8 9 10 12 14 14 12 15 12 16 16 16 14 14 14 13 14 11 12 12 13 12 13 19 18 16 15 13 8 9 11 10 10
10 7 6 9 11 11 11 9 9 11 11 11 13 12 13 14 12 14 14 14 15 14 15 17 16 17 13 14 13 14 15 14 13 13 9 12 14 13 14 11 11 12 11
11 11 7 5 6 8 10 9 9 10 9 11 12 12 13 13 14 14 16 14 14 14 14 13 14 22 22 18 15 15 17 12 13 12 12 12 12 12 12 12 14 12 12
11 11 11 10 9 8 9 10 9 9 8 10 10 10 11 11 13 11 15 20 15 15 15 13 13 15 22 24 19 22 18 12 13 13 13 12 11 11 10 10 13 14 12
15 11 11 10 10 8 9 9 10 9 8 8 8 8 9 9 8 12 14 17 19 15 15 15 12 4 8 12 16 15 16 13 13 13 13 13 12 11 11 10 8 10 14
13 15 10 12 9 10 8 8 8 11 7 8 6 4 4 6 8 7 8 5 13 11 15 15 17 14 15 13 8 11 12 12 13 13 13 12 12 11 11 10 11 10 11
13 14 13 9 12 9 9 8 8 10 9 10 11 11 12 5 0 3 6 6 6 7 9 14 14 13 14 13 13 13 11 12 13 12 13 12 12 12 11 10 10 10 11
15 12 11 11 7 10 11 10 12 15 12 12 12 10 11 12 15 13 16 16 14 8 6 10 11 13 13 13 13 13 13 14 12 12 12 13 13 11 10 10 10 10 11
12 14 13 12 12 12 7 10 12 10 15 15 16 14 13 13 14 13 16 17 18 7 8 10 11 11 12 13 12 12 14 13 13 13 12 10 11 12 11 11 10 9 10
15 14 13 14 14 13 13 11 10 11 12 10 9 14 14 13 5 10 14 8 6 5 10 12 10 11 11 11 12 11 10 10 8 9 10 11 11 11 11 12 11 11 11
14 11 13 15 15 14 13 13 13 12 10 13 11 8 11 10 7 7 6 9 7 8 7 9 10 9 9 9 11 11 12 10 9 10 11 12 12 12 12 12 11 12 6
14 21 17 14 14 16 14 14 14 14 13 13 11 12 10 5 8 10 9 8 6 9 8 8 7 12 11 11 10 9 10 11 11 12 12 10 10 10 11 10 10 10 9
9 12 20 14 14 13 15 14 15 14 15 13 11 8 9 4 9 11 10 8 5 7 8 7 4 4 10 7 6 7 8 8 8 11 13 10 8 6 7 7 7 8 9
12 12 12 13 13 13 13 13 14 14 15 16 10 9 6 7 9 9 9 7 6 6 5 8 5 3 4 4 6 3 3 4 2 3 3 11 6 5 4 3 1 2 1
12 12 11 11 11 16 16 12 13 14 15 16 9 8 11 9 9 8 8 6 5 4 6 7 5 3 3 3 5 4 6 3 2 2 3 4 3 4 4 4 3 3 1
12 13 13 11 10 11 11 11 11 12 13 12 8 8 9 9 7 7 6 4 3 4 4 5 5 7 6 2 3 6 6 7 5 5 4 3 2 1 3 2 4 4 3
11 11 10 10 10 10 11 11 10 10 10 8 7 6 6 6 6 4 3 1 3 4 5 5 4 8 9 12 12 9 7 7 4 4 3 6 5 5 4 4 5 4 4
9 10 9 8 8 8 8 9 8 8 7 6 4 4 4 4 4 3 2 3 5 5 6 5 6 13 12 10 9 9 7 9 6 8 5 5 5 5 3 4 5 4 5
Wind_Direction
209 211 205 207 204 206 208 203 211 229 256 189 222 199 189 202 195 210 269 201 202 220 272 266 208 270 287 287 255 240 269 267 266 275 329 334 325 279 296 309 300 295 301
206 210 210 213 212 203 210 207 198 209 218 230 231 198 247 218 197 211 218 238 206 214 226 240 239 234 219 260 279 304 304 326 306 308 294 290 270 267 253 275 286 303 309
197 205 209 208 214 217 207 211 205 199 205 210 216 217 212 228 242 208 223 228 226 214 226 222 235 237 248 266 276 264 252 225 226 243 273 279 283 294 282 265 262 275 269
223 199 202 206 213 216 218 211 211 204 207 206 211 213 220 220 220 235 221 220 233 235 227 233 234 231 239 235 239 260 253 272 274 263 259 265 262 270 263 268 309 307 303
345 343 199 198 208 217 221 216 218 214 212 212 212 215 216 225 225 218 230 230 215 235 254 237 230 241 241 238 251 227 250 245 257 266 267 265 269 336 337 325 295 294 320
10 351 326 352 227 213 221 226 218 221 219 214 220 215 217 226 219 202 215 224 229 225 232 236 249 247 220 219 234 263 269 281 267 279 286 289 310 301 296 302 323 314 306
9 6 1 323 292 279 244 231 226 224 229 219 221 224 222 223 235 205 204 230 242 224 226 232 245 241 205 221 216 234 251 246 243 263 270 270 284 285 285 287 286 300 295
16 10 358 359 355 323 290 266 257 243 235 232 228 227 231 228 218 206 203 223 232 245 249 228 231 250 266 230 226 231 229 238 234 236 237 253 260 268 266 270 268 267 264
26 11 3 354 352 341 337 302 245 255 248 244 243 238 234 236 220 208 199 229 233 236 238 244 247 236 228 224 253 246 241 247 236 213 221 229 228 239 257 277 275 279 278
359 12 12 3 346 341 327 318 308 275 253 233 238 243 244 243 223 204 204 235 235 233 230 230 239 245 238 208 226 242 245 246 253 268 242 247 249 248 232 233 255 258 265
335 336 343 348 327 325 317 308 311 294 274 269 267 255 237 246 235 199 199 228 246 241 236 237 226 210 223 221 215 235 242 249 247 252 255 253 254 250 230 217 216 228 248
320 320 327 326 328 330 327 316 307 298 283 268 262 260 255 251 231 229 205 216 234 251 260 253 237 211 210 214 212 228 229 229 249 259 265 262 257 256 256 245 208 211 226
307 303 310 314 314 317 312 301 292 266 295 296 259 244 254 248 260 249 221 218 227 237 251 265 322 0 212 234 238 231 220 231 243 248 250 254 256 257 261 260 254 204 220
294 292 286 298 293 295 300 302 298 301 293 270 301 278 290 301 252 243 273 263 251 258 256 255 255 276 292 277 226 212 227 233 234 240 245 249 253 248 247 240 240 243 244
285 283 281 272 292 284 274 287 296 299 301 313 305 313 317 300 5 322 303 319 325 295 286 257 253 242 244 247 244 240 223 216 229 243 248 249 244 243 244 242 247 249 252
297 282 274 281 257 285 298 279 239 237 262 265 250 252 294 284 310 314 308 299 293 268 239 246 253 246 240 236 230 232 231 226 234 224 224 236 251 252 249 246 245 246 255
316 307 289 284 273 271 245 286 291 270 235 244 241 239 227 263 289 305 303 295 289 273 232 246 247 246 254 249 242 238 231 225 212 220 241 234 229 229 232 242 250 252 245
303 284 282 277 274 271 273 264 257 284 280 280 249 228 222 232 248 278 282 305 270 215 260 238 235 243 253 265 269 271 280 272 247 240 241 250 252 248 248 249 244 243 239
297 288 287 287 292 285 283 288 285 278 271 271 275 250 223 169 238 273 262 262 289 277 232 233 243 246 244 253 252 250 240 236 238 234 227 227 234 245 249 237 241 242 271
297 292 276 275 273 276 277 273 271 267 266 265 271 273 277 329 308 304 298 296 279 279 280 263 226 248 239 246 254 244 247 242 244 242 229 223 229 237 244 258 274 279 278
293 295 297 288 283 274 272 277 277 275 274 268 261 284 82 290 287 290 290 294 306 317 318 302 302 314 302 267 264 276 262 265 284 296 247 211 199 224 234 238 248 251 256
297 295 288 286 292 292 298 291 287 271 271 273 270 273 110 308 280 280 284 290 302 307 306 306 308 356 86 317 308 282 227 207 154 313 338 313 56 351 300 264 10 348 347
304 295 288 283 284 288 290 294 295 287 286 286 317 282 285 285 278 281 284 293 302 323 323 315 322 356 14 6 299 337 311 5 19 145 184 185 150 200 215 237 174 176 154
315 307 302 297 290 283 279 279 282 275 273 282 282 278 276 279 278 275 279 291 311 12 338 338 326 41 8 337 355 35 4 357 312 269 230 134 138 104 270 88 53 60 70
312 307 299 292 286 279 280 274 275 268 268 276 273 259 266 269 264 260 267 5 35 42 21 9 352 48 34 29 31 16 337 328 353 345 25 89 106 111 104 107 112 106 107
323 324 311 307 300 293 283 275 268 263 263 265 259 256 244 241 237 222 175 108 87 69 62 41 27 55 50 38 29 11 354 351 25 26 62 78 90 92 108 118 109 92 93